Zurück zum Katalog

STARLINK-35724

AktivKommunikationVLEO
NORAD 66279·PAYLOAD·🇺🇸 United States

Gestartet Oct 31, 2025 von Vandenberg Space Force Base

Loading…

Nächste Überflüge (nächste 24 Stunden)

TLE

AktuellSource: CelesTrak SupGP

Epoche: Sep 15, 2026, 03:07 UTC

1 66279C 25247Q   26258.13034722  .00023120  00000+0  68297-3 0  2585
2 66279  53.1607  28.4629 0001078  74.3501 184.3121 15.34384202    14

Verfolge STARLINK-35724 in Echtzeit mit AllMySat

Download on the App Store